DW4238 Weather Reports


Display with metric or nautical units.
time (UTC)temp
F
wind
direction
speed
MPH
gust
MPH
rain 1hr
in
rain 24hr
in
rain mn
in
humidity
%
barometer
mb
20260906203629 89 148 8.0 14.0 0.00 0.00 0.00 68 1011.8
20260906203056 90 130 6.0 10.0 0.00 0.00 0.00 70 1011.7
20260906202539 90 140 4.0 9.0 0.00 0.00 0.00 70 1011.7
20260906201602 89 155 5.0 10.0 0.00 0.00 0.00 69 1011.7
20260906201052 89 189 6.0 10.0 0.00 0.00 0.00 68 1011.6
20260906200114 88 159 7.0 10.0 0.00 0.00 0.00 69 1011.8
20260906195622 88 180 6.0 11.0 0.00 0.00 0.00 73 1011.9
20260906194627 87 139 9.0 15.0 0.00 0.00 0.00 72 1012.1
20260906194038 87 149 6.0 16.0 0.00 0.00 0.00 76 1012.1
20260906193644 86 146 9.0 16.0 0.00 0.00 0.00 78 1012.2
20260906193050 86 121 8.0 12.0 0.00 0.00 0.00 78 1012.3
20260906192602 85 157 8.0 15.0 0.00 0.00 0.00 78 1012.4
20260906191624 84 143 10.0 16.0 0.00 0.00 0.00 80 1012.4
20260906191128 84 153 12.0 17.0 0.00 0.00 0.00 80 1012.5
20260906190617 85 148 10.0 15.0 0.00 0.00 0.00 79 1012.6
20260906190050 85 149 6.0 10.0 0.00 0.00 0.00 78 1012.5
20260906185552 86 136 2.0 8.0 0.00 0.00 0.00 77 1012.6
20260906184554 86 88 4.0 9.0 0.00 0.00 0.00 76 1012.4
20260906184104 86 102 5.0 10.0 0.00 0.00 0.00 75 1012.3
20260906183626 86 81 6.0 10.0 0.00 0.00 0.00 75 1012.4
20260906183053 86 109 4.0 13.0 0.00 0.00 0.00 74 1012.5
20260906182602 87 124 7.0 14.0 0.00 0.00 0.00 72 1012.5
20260906182105 89 61 10.0 13.0 0.00 0.00 0.00 69 1012.5
20260906181532 90 83 6.0 10.0 0.00 0.00 0.00 68 1012.6
20260906181048 91 171 3.0 6.0 0.00 0.00 0.00 63 1012.5
20260906180649 91 174 5.0 7.0 0.00 0.00 0.00 63 1012.6
20260906180059 91 263 1.0 7.0 0.00 0.00 0.00 62 1012.7
20260906175603 91 284 4.0 8.0 0.00 0.00 0.00 61 1012.8
20260906174611 92 234 1.0 12.0 0.00 0.00 0.00 63 1012.8
20260906174117 91 197 4.0 13.0 0.00 0.00 0.00 66 1012.8
20260906173629 91 278 5.0 9.0 0.00 0.00 0.00 65 1012.8
20260906173057 91 238 5.0 7.0 0.00 0.00 0.00 64 1012.9
20260906172539 91 148 2.0 7.0 0.00 0.00 0.00 66 1013.0
20260906171606 90 244 1.0 10.0 0.00 0.00 0.00 69 1013.4
20260906171057 90 202 5.0 10.0 0.00 0.00 0.00 68 1013.5
20260906170058 89 229 3.0 6.0 0.00 0.00 0.00 69 1013.5
20260906165603 89 223 3.0 7.0 0.00 0.00 0.00 69 1013.4
20260906164625 88 221 1.0 6.0 0.00 0.00 0.00 71 1013.5
20260906164116 88 221 5.0 9.0 0.00 0.00 0.00 70 1013.5
20260906163117 89 200 6.0 9.0 0.00 0.00 0.00 72 1013.6
20260906162532 88 283 4.0 8.0 0.00 0.00 0.00 75 1013.7
20260906162045 87 153 1.0 6.0 0.00 0.00 0.00 75 1013.7
20260906161650 87 302 4.0 7.0 0.00 0.00 0.00 72 1013.8
20260906161140 87 292 1.0 6.0 0.00 0.00 0.00 75 1013.8
20260906160624 87 186 4.0 7.0 0.00 0.00 0.00 75 1013.8
20260906160051 87 207 4.0 8.0 0.00 0.00 0.00 76 1013.7
20260906155541 87 201 4.0 9.0 0.00 0.00 0.00 74 1013.8
20260906154602 87 194 1.0 7.0 0.00 0.00 0.00 80 1013.8
20260906154107 86 199 3.0 9.0 0.00 0.00 0.00 80 1013.8
20260906153618 86 255 2.0 9.0 0.00 0.00 0.00 81 1013.7
20260906153049 86 217 3.0 6.0 0.00 0.00 0.00 81 1013.7
20260906152554 85 207 2.0 6.0 0.00 0.00 0.00 82 1013.7
20260906151623 85 202 5.0 9.0 0.00 0.00 0.00 83 1013.8
20260906151128 84 193 6.0 9.0 0.00 0.00 0.00 84 1013.7
20260906150540 84 181 1.0 6.0 0.00 0.00 0.00 86 1013.7
20260906150147 84 182 3.0 8.0 0.00 0.00 0.00 86 1013.7
20260906145537 84 146 3.0 8.0 0.00 0.00 0.00 88 1013.7
20260906144559 83 177 3.0 6.0 0.00 0.00 0.00 90 1013.7
20260906144114 83 166 3.0 6.0 0.00 0.00 0.00 90 1013.7
20260906143536 82 169 4.0 6.0 0.00 0.00 0.00 90 1013.6
20260906143144 82 167 3.0 5.0 0.00 0.00 0.00 91 1013.7
20260906142638 82 150 2.0 5.0 0.00 0.00 0.00 91 1013.6
20260906142118 82 150 4.0 7.0 0.00 0.00 0.00 91 1013.7
20260906141546 82 136 4.0 8.0 0.00 0.00 0.00 91 1013.7
20260906141052 81 155 3.0 8.0 0.00 0.00 0.00 92 1013.6
20260906140121 81 158 5.0 8.0 0.00 0.00 0.00 92 1013.5
20260906135626 81 155 6.0 8.0 0.00 0.00 0.00 92 1013.5
20260906135116 81 180 5.0 6.0 0.00 0.00 0.00 93 1013.4
20260906134040 80 171 3.0 5.0 0.00 0.00 0.00 93 1013.3
20260906133103 80 156 3.0 7.0 0.00 0.00 0.00 93 1013.2
20260906132533 80 149 4.0 5.0 0.00 0.00 0.00 94 1013.2
20260906131555 79 134 2.0 5.0 0.00 0.00 0.00 93 1012.9
20260906131106 79 111 1.0 4.0 0.00 0.00 0.00 93 1012.9
20260906130107 79 132 2.0 3.0 0.00 0.00 0.00 93 1012.8
20260906125619 79 134 1.0 3.0 0.00 0.00 0.00 93 1012.8
20260906125124 79 137 0.0 0.0 0.00 0.00 0.00 93 1012.8
20260906124556 79 139 0.0 1.0 0.00 0.00 0.00 93 1012.8
20260906124110 78 136 0.0 0.0 0.00 0.00 0.00 93 1012.6
20260906123050 78 136 0.0 3.0 0.00 0.00 0.00 93 1012.5
20260906122554 78 136 0.0 3.0 0.00 0.00 0.00 93 1012.5
20260906121623 78 138 2.0 4.0 0.00 0.00 0.00 93 1012.4
20260906121127 79 140 0.0 3.0 0.00 0.00 0.00 93 1012.3
20260906120615 78 140 1.0 3.0 0.00 0.00 0.00 93 1012.2
20260906120035 79 142 1.0 4.0 0.00 0.00 0.00 93 1012.3
20260906115551 79 142 3.0 4.0 0.00 0.00 0.00 93 1012.3
20260906114613 79 143 2.0 4.0 0.00 0.00 0.00 93 1012.2
20260906114103 78 144 3.0 4.0 0.00 0.00 0.00 92 1012.1
20260906113603 78 148 0.0 0.0 0.00 0.00 0.00 92 1012.0
20260906113035 78 149 0.0 3.0 0.00 0.00 0.00 92 1011.8
20260906112547 78 150 0.0 5.0 0.00 0.00 0.00 92 1011.8
20260906111608 78 161 3.0 5.0 0.00 0.00 0.00 92 1011.7
20260906111058 78 175 1.0 3.0 0.00 0.00 0.00 92 1011.6
20260906110601 78 178 2.0 4.0 0.00 0.00 0.00 92 1011.5
20260906110032 78 180 2.0 4.0 0.00 0.00 0.00 92 1011.4
20260906105537 78 181 2.0 4.0 0.00 0.00 0.00 92 1011.4
20260906104606 78 205 3.0 4.0 0.00 0.00 0.00 92 1011.5
20260906104050 78 206 3.0 4.0 0.00 0.00 0.00 91 1011.6
20260906103120 79 209 0.0 3.0 0.00 0.00 0.00 91 1011.4
20260906102602 79 210 0.0 0.0 0.00 0.00 0.00 91 1011.4
20260906102114 79 211 0.0 0.0 0.00 0.00 0.00 91 1011.5
20260906101537 79 213 0.0 0.0 0.00 0.00 0.00 90 1011.4
20260906101049 79 213 0.0 0.0 0.00 0.00 0.00 91 1011.4
20260906100113 79 213 0.0 0.0 0.00 0.00 0.00 90 1011.2
20260906095625 79 214 0.0 0.0 0.00 0.00 0.00 90 1011.1
20260906095129 79 215 0.0 0.0 0.00 0.00 0.00 90 1011.1
20260906094557 79 215 0.0 0.0 0.00 0.00 0.00 90 1011.0
20260906094109 79 215 0.0 0.0 0.00 0.00 0.00 90 1011.0
20260906093614 79 215 0.0 0.0 0.00 0.00 0.00 90 1011.0
20260906093046 79 215 0.0 0.0 0.00 0.00 0.00 90 1011.0
20260906092557 79 215 0.0 0.0 0.00 0.00 0.00 89 1011.0
20260906091552 79 215 0.0 0.0 0.00 0.00 0.00 90 1011.0
20260906091104 79 215 0.0 0.0 0.00 0.00 0.00 90 1011.0
20260906090106 79 215 0.0 0.0 0.00 0.00 0.00 89 1010.9
20260906085556 79 215 0.0 0.0 0.00 0.00 0.00 89 1010.9
20260906084618 80 215 0.0 0.0 0.00 0.00 0.00 89 1011.1
20260906084110 79 215 0.0 0.0 0.00 0.00 0.00 89 1011.1
20260906083131 80 215 0.0 0.0 0.00 0.00 0.00 89 1011.1
20260906082535 80 216 0.0 0.0 0.00 0.00 0.00 89 1011.1
20260906081604 80 217 0.0 2.0 0.00 0.00 0.00 89 1011.1
20260906081045 80 218 0.0 3.0 0.00 0.00 0.00 89 1011.1
20260906080046 80 219 0.0 0.0 0.00 0.00 0.00 89 1011.2
20260906075558 80 219 0.0 1.0 0.00 0.00 0.00 89 1011.2
20260906075109 80 219 0.0 3.0 0.00 0.00 0.00 88 1011.2
20260906074533 80 219 1.0 3.0 0.00 0.00 0.00 88 1011.3
20260906074045 80 219 2.0 4.0 0.00 0.00 0.00 88 1011.3
20260906073107 80 219 0.0 0.0 0.00 0.00 0.00 88 1011.6
20260906072557 80 219 0.0 3.0 0.00 0.00 0.00 88 1011.6
20260906071621 80 218 2.0 4.0 0.00 0.00 0.00 88 1011.7
20260906071112 80 216 2.0 4.0 0.00 0.00 0.00 88 1011.7
20260906070616 80 216 1.0 4.0 0.00 0.00 0.00 88 1011.8
20260906070039 80 215 1.0 4.0 0.00 0.00 0.00 88 1011.8
20260906065550 80 198 2.0 4.0 0.00 0.00 0.00 88 1011.8
20260906065033 80 198 2.0 5.0 0.00 0.00 0.00 88 1011.8
20260906064534 80 197 3.0 5.0 0.00 0.00 0.00 88 1011.8
20260906064044 80 195 2.0 4.0 0.00 0.00 0.00 88 1011.7
20260906063534 80 194 3.0 5.0 0.00 0.00 0.00 88 1011.7
20260906063044 80 192 3.0 5.0 0.00 0.00 0.00 88 1011.8
20260906062534 80 192 3.0 5.0 0.00 0.00 0.00 88 1011.9
20260906062103 80 191 2.0 4.0 0.00 0.00 0.00 88 1011.9
20260906061542 80 171 2.0 4.0 0.00 0.00 0.00 88 1012.0
20260906061052 80 171 0.0 5.0 0.00 0.00 0.00 89 1011.9
20260906060559 80 170 4.0 5.0 0.00 0.00 0.00 89 1011.9
20260906060034 80 170 4.0 5.0 0.00 0.00 0.00 89 1011.8
20260906055544 80 169 4.0 6.0 0.00 0.00 0.00 89 1011.7
20260906055034 80 163 1.0 5.0 0.00 0.00 0.00 89 1011.6
20260906054555 80 160 2.0 6.0 0.00 0.00 0.00 89 1011.8
20260906054105 80 161 3.0 6.0 0.00 0.00 0.00 89 1011.8
20260906053554 79 163 2.0 6.0 0.00 0.00 0.00 89 1011.9
20260906053108 79 164 4.0 7.0 0.00 0.00 0.00 89 1011.8
20260906052537 79 161 5.0 7.0 0.00 0.00 0.00 89 1012.0
20260906052049 79 168 4.0 7.0 0.00 0.00 0.00 89 1012.0
20260906051609 79 145 3.0 7.0 0.00 0.00 0.00 89 1011.9
20260906051058 79 144 4.0 7.0 0.00 0.00 0.00 89 1011.8
20260906050542 79 171 4.0 9.0 0.00 0.00 0.00 89 1011.8
20260906050042 79 156 5.0 9.0 0.00 0.00 0.00 89 1011.8
20260906045141 79 168 6.0 10.0 0.00 0.00 0.00 89 1011.9
20260906044547 79 160 7.0 9.0 0.00 0.00 0.00 88 1011.8
20260906044052 79 153 6.0 9.0 0.00 0.00 0.00 88 1012.0
20260906043601 79 146 4.0 9.0 0.00 0.00 0.00 88 1012.0
20260906043033 79 144 5.0 9.0 0.00 0.00 0.00 88 1012.1
20260906042538 79 145 4.0 8.0 0.00 0.00 0.00 87 1012.1
20260906041601 79 159 2.0 6.0 0.00 0.00 0.00 87 1011.9
20260906041114 79 157 3.0 8.0 0.00 0.00 0.00 87 1011.9
20260906040626 79 157 5.0 9.0 0.00 0.00 0.00 86 1011.9
20260906040046 79 153 5.0 8.0 0.00 0.00 0.00 86 1011.9
20260906035558 79 144 4.0 8.0 0.00 0.00 0.00 85 1012.1
20260906034625 79 146 4.0 7.0 0.00 0.00 0.00 85 1011.9
20260906034034 79 145 3.0 5.0 0.00 0.00 0.00 85 1011.9
20260906033532 80 142 4.0 8.0 0.00 0.00 0.00 84 1011.8
20260906032539 80 141 3.0 5.0 0.00 0.00 0.00 84 1011.8
20260906031600 80 140 0.0 5.0 0.00 0.00 0.00 83 1011.9
20260906031050 80 141 0.0 4.0 0.00 0.00 0.00 83 1011.9
20260906030117 80 149 4.0 7.0 0.00 0.00 0.00 83 1011.8
20260906025625 80 111 4.0 7.0 0.00 0.00 0.00 82 1011.9
20260906025129 80 136 4.0 8.0 0.00 0.00 0.00 82 1011.8
20260906024556 80 140 5.0 8.0 0.00 0.00 0.00 82 1011.6
20260906024047 81 142 4.0 9.0 0.00 0.00 0.00 82 1011.6
20260906023106 81 146 3.0 8.0 0.00 0.00 0.00 82 1011.4
20260906022611 81 150 4.0 7.0 0.00 0.00 0.00 82 1011.3
20260906022124 81 143 3.0 7.0 0.00 0.00 0.00 81 1011.3
20260906021555 81 146 4.0 8.0 0.00 0.00 0.00 81 1011.3
20260906021037 81 144 4.0 8.0 0.00 0.00 0.00 81 1011.1
20260906020106 81 146 3.0 7.0 0.00 0.00 0.00 81 1010.9
20260906015550 81 134 1.0 7.0 0.00 0.00 0.00 81 1010.8
20260906014551 82 133 3.0 9.0 0.00 0.00 0.00 80 1010.7
20260906014104 82 141 6.0 9.0 0.00 0.00 0.00 80 1010.5
20260906013647 82 140 4.0 8.0 0.00 0.00 0.00 80 1010.5
20260906013054 82 143 4.0 7.0 0.00 0.00 0.00 80 1010.5
20260906012606 82 142 4.0 8.0 0.00 0.00 0.00 80 1010.4
20260906011607 83 141 4.0 10.0 0.00 0.00 0.00 79 1010.5
20260906011103 83 153 3.0 7.0 0.00 0.00 0.00 79 1010.5
20260906010103 83 138 3.0 9.0 0.00 0.00 0.00 78 1010.4
20260906005607 83 145 5.0 9.0 0.00 0.00 0.00 78 1010.5
20260906005112 84 143 4.0 9.0 0.00 0.00 0.00 77 1010.5
20260906004543 84 128 5.0 10.0 0.00 0.00 0.00 77 1010.6
20260906004048 84 101 6.0 10.0 0.00 0.00 0.00 77 1010.7
20260906003107 84 140 4.0 12.0 0.00 0.00 0.00 76 1010.7
20260906002620 84 141 8.0 12.0 0.00 0.00 0.00 76 1010.8
20260906002110 85 135 3.0 9.0 0.00 0.00 0.00 75 1010.8
20260906001535 85 103 5.0 10.0 0.00 0.00 0.00 74 1010.8
20260906001046 85 126 5.0 11.0 0.00 0.00 0.00 74 1010.9
20260906000109 86 124 8.0 14.0 0.00 0.00 0.00 72 1010.8
20260905235556 86 115 7.0 15.0 0.00 0.00 0.00 72 1010.7
20260905234618 86 136 7.0 15.0 0.00 0.00 0.00 69 1010.6
20260905234047 87 135 7.0 15.0 0.00 0.00 0.00 68 1010.7
20260905233630 88 138 9.0 18.0 0.00 0.00 0.00 67 1010.7
20260905233036 89 181 10.0 16.0 0.00 0.00 0.00 66 1010.6
20260905232541 90 94 6.0 12.0 0.00 0.00 0.00 66 1010.4
20260905231614 90 69 6.0 16.0 0.00 0.00 0.00 65 1010.3
20260905231119 91 77 8.0 16.0 0.00 0.00 0.00 65 1010.2
20260905230624 91 63 4.0 6.0 0.00 0.00 0.00 66 1010.2
20260905230034 91 54 2.0 5.0 0.00 0.00 0.00 66 1010.2
20260905225539 91 63 3.0 7.0 0.00 0.00 0.00 66 1010.2
20260905224602 90 41 3.0 9.0 0.00 0.00 0.00 67 1010.1
20260905224111 90 63 4.0 10.0 0.00 0.00 0.00 67 1010.1
20260905223131 90 30 5.0 10.0 0.00 0.00 0.00 65 1010.2
20260905222621 91 34 5.0 11.0 0.00 0.00 0.00 64 1010.2
20260905222128 91 41 6.0 11.0 0.00 0.00 0.00 64 1010.2
20260905221553 91 13 6.0 11.0 0.00 0.00 0.00 64 1010.1
20260905221105 91 30 5.0 10.0 0.00 0.00 0.00 63 1010.0
20260905220603 92 14 7.0 12.0 0.00 0.00 0.00 61 1010.0
20260905220034 92 22 5.0 12.0 0.00 0.00 0.00 59 1010.0
20260905215538 94 33 6.0 11.0 0.00 0.00 0.00 55 1010.0
20260905214608 95 142 2.0 8.0 0.00 0.00 0.00 53 1010.2
20260905214112 95 144 5.0 8.0 0.00 0.00 0.00 52 1010.2
20260905213629 95 150 3.0 6.0 0.00 0.00 0.00 53 1010.2
20260905213056 95 86 3.0 9.0 0.00 0.00 0.00 54 1010.2
20260905212539 95 69 4.0 9.0 0.00 0.00 0.00 54 1010.2
20260905212151 95 120 4.0 9.0 0.00 0.00 0.00 54 1010.2
20260905211550 95 94 5.0 9.0 0.00 0.00 0.00 54 1010.2
20260905211101 95 71 4.0 8.0 0.00 0.00 0.00 56 1010.2
20260905210613 95 120 3.0 8.0 0.00 0.00 0.00 55 1010.2
20260905210034 95 98 4.0 15.0 0.00 0.00 0.00 56 1010.3
20260905205546 95 149 7.0 15.0 0.00 0.00 0.00 57 1010.3
20260905204613 94 84 3.0 9.0 0.00 0.00 0.00 57 1010.4
20260905204121 94 69 1.0 9.0 0.00 0.00 0.00 58 1010.4